Wind_Speed
5 4 4 3 3 2 2 3 3 4 5 6 7 8 9 10 11 12 13 13 14 15 16 17 18 19 19 20 20 21 21 21 21 21 20 20 20 19 20 20 20 21 21 22 22 23 23 24 25 26 26 27 28 29 29 29 28 28 27 26 26 26 27 28 30 30 30 30 29
5 4 3 3 2 1 2 2 3 4 5 6 7 9 9 10 11 12 13 14 15 16 17 17 18 19 19 20 20 21 21 21 21 21 20 20 20 20 20 20 21 21 22 22 23 23 24 25 26 27 28 29 29 30 30 30 29 28 27 27 27 28 29 30 31 31 30 30 29
4 3 3 2 1 1 2 3 4 5 6 7 8 9 10 11 12 13 14 15 16 17 17 18 19 19 20 20 20 20 21 21 21 21 20 20 20 20 20 21 21 22 22 23 23 24 25 26 27 28 29 30 31 31 31 30 29 28 27 27 28 29 30 31 31 31 31 30 30
4 3 2 1 0 1 3 4 5 6 7 8 9 10 11 12 13 14 15 16 16 17 18 18 19 19 20 20 20 20 21 21 21 21 20 20 20 20 21 21 22 22 23 23 24 25 26 27 28 29 30 31 31 32 31 31 30 28 28 28 29 30 30 31 31 31 31 31 31
4 2 1 1 1 2 3 4 5 6 7 9 10 11 12 13 14 15 16 16 17 17 18 18 19 19 19 20 20 20 20 21 21 21 21 20 21 21 21 21 22 23 23 24 25 26 27 28 29 30 31 32 32 32 31 31 30 29 29 29 30 30 31 31 31 31 31 31 31
3 2 1 1 2 3 4 5 5 7 8 9 10 11 12 13 14 15 15 16 16 17 18 18 19 19 19 20 20 20 20 21 21 21 21 21 21 21 21 22 22 23 24 25 26 27 28 29 30 31 32 32 33 32 32 31 30 30 30 30 30 31 31 31 32 32 32 32 32
3 2 2 1 2 3 4 5 6 7 8 9 11 12 13 14 14 15 15 16 17 17 18 19 19 19 19 20 20 21 21 21 21 21 21 21 21 21 22 22 23 24 25 26 27 28 29 31 32 32 33 33 33 33 32 31 30 30 31 31 31 31 31 32 32 32 33 33 33
4 3 2 2 3 4 4 5 6 7 9 10 11 12 13 14 14 15 15 16 17 18 18 19 19 19 20 20 21 21 21 21 21 21 21 21 21 22 22 23 24 25 26 27 29 30 31 32 32 33 33 33 33 33 32 31 31 30 31 31 32 32 32 32 33 33 33 33 33
4 3 3 3 4 4 5 6 7 8 9 11 12 13 13 14 14 15 15 16 17 18 19 19 19 20 20 21 21 21 21 21 21 21 21 21 22 22 23 24 25 26 27 28 30 31 32 33 33 33 33 33 33 33 32 31 31 31 31 31 32 33 33 33 34 34 33 33 33
4 4 4 4 4 5 6 7 8 9 10 11 12 13 14 14 15 15 15 16 17 18 19 19 20 20 20 21 21 21 21 21 21 21 21 22 22 23 24 25 26 28 29 30 31 32 32 33 33 34 33 33 33 32 32 31 31 31 31 32 33 34 35 35 34 34 34 33 33
5 5 5 5 5 6 7 8 9 10 11 11 12 13 14 14 15 15 16 17 17 18 19 19 20 20 21 21 21 21 21 21 21 21 22 22 23 24 25 26 28 29 30 31 31 32 33 33 33 33 33 33 32 32 31 31 31 31 32 32 33 34 35 36 35 34 34 33 33
5 5 5 6 6 7 8 9 10 11 11 12 12 13 14 14 15 16 16 17 17 18 19 19 20 20 20 21 21 21 21 21 21 22 23 23 24 25 26 28 29 30 31 31 32 32 33 33 33 33 33 32 32 31 31 31 31 31 32 33 34 35 36 36 36 35 34 34 34
6 6 6 6 7 8 9 9 10 11 12 12 12 13 14 15 15 16 16 17 18 18 19 19 19 20 20 20 20 21 21 21 22 23 23 24 25 26 28 29 30 31 31 32 32 32 32 32 32 32 32 32 31 31 30 30 31 31 32 34 35 36 36 37 36 36 35 34 34
6 6 6 7 8 8 9 10 11 12 12 13 13 13 14 15 16 16 17 17 18 18 19 19 19 19 19 20 20 21 21 22 22 23 24 25 27 28 29 30 31 31 32 32 32 32 32 32 31 31 31 31 31 31 30 30 31 32 33 34 35 36 37 37 36 36 35 35 34
7 6 7 7 8 9 10 11 12 12 13 13 13 14 14 15 16 17 17 18 18 18 19 19 19 19 19 20 20 21 22 22 23 24 26 27 28 29 30 31 32 32 32 32 32 32 31 31 31 30 31 31 31 31 31 31 31 32 33 34 36 37 37 37 36 36 35 34 35
7 7 7 8 9 10 11 11 12 13 13 13 14 14 15 15 16 17 17 18 18 18 18 18 19 19 19 20 21 22 23 24 25 26 27 28 29 30 31 32 32 32 32 32 31 31 31 30 30 30 30 31 31 31 31 31 32 33 34 36 36 37 37 37 36 35 34 34 34
8 8 8 9 9 10 11 12 13 13 13 14 14 15 15 16 16 17 17 18 18 18 18 18 19 19 20 21 21 23 24 25 26 27 28 29 30 31 32 32 32 31 31 31 31 31 31 31 30 30 30 31 31 31 32 32 33 34 36 36 37 37 37 36 35 35 34 34 35
8 9 9 9 10 11 11 12 13 13 14 14 14 15 15 16 17 17 17 17 17 18 18 18 19 20 21 22 23 24 25 26 28 29 29 30 31 31 31 31 31 31 31 30 30 31 31 31 31 31 31 31 31 32 32 33 34 35 36 37 37 37 36 36 35 34 34 35 35
9 9 10 10 10 11 12 13 13 14 14 14 14 15 16 16 16 17 17 17 17 18 18 19 20 21 22 23 24 25 26 27 29 30 30 31 31 31 31 31 31 30 30 30 30 31 31 32 32 32 32 32 32 32 33 34 35 36 37 37 37 36 36 36 35 35 35 35 35
10 10 10 10 11 11 12 13 13 14 14 14 15 15 16 16 16 16 17 17 18 18 19 20 21 22 23 24 25 26 27 28 29 30 31 31 31 31 30 30 30 30 30 30 31 31 32 32 32 32 32 32 32 33 34 35 35 36 36 36 36 36 36 36 36 36 36 35 35
10 10 10 10 11 12 12 13 13 14 14 14 15 15 15 16 16 16 17 17 18 19 20 21 22 23 24 25 27 28 29 29 30 31 31 31 31 30 30 30 30 30 31 31 32 32 32 33 33 32 32 32 32 33 34 34 35 36 36 36 37 37 37 37 37 36 36 35 34
10 10 10 11 11 12 13 13 14 14 14 14 15 15 15 15 16 16 17 18 19 20 21 22 23 24 26 27 28 29 30 30 30 30 30 30 30 30 30 30 30 31 32 32 33 33 33 33 33 32 32 32 32 32 33 34 35 36 36 37 37 38 38 37 37 36 35 34 32
10 10 10 11 12 12 13 14 14 14 14 14 14 15 15 15 16 16 17 18 20 21 22 23 24 26 27 28 29 30 30 31 31 30 30 30 30 30 30 30 31 32 32 33 33 33 33 33 32 31 31 31 31 32 33 33 34 35 36 37 38 38 38 38 37 36 34 33 31
10 10 11 11 12 13 13 14 14 14 14 14 14 14 14 15 16 17 18 19 21 22 23 24 25 26 28 28 29 30 30 31 31 30 30 30 30 30 31 31 32 32 33 33 33 33 32 31 31 30 30 30 31 32 32 33 34 35 36 37 38 38 38 38 36 34 33 31 29
10 10 11 12 13 13 14 14 13 13 13 13 14 14 15 15 17 18 19 21 22 23 24 25 26 27 28 29 30 30 30 30 30 30 30 30 31 31 31 32 32 33 33 33 33 32 31 29 29 29 29 30 30 31 32 33 34 35 36 37 37 37 37 37 35 33 31 30 28
10 11 12 13 13 14 14 13 13 13 13 13 13 14 15 16 18 19 20 22 23 24 25 26 27 28 29 30 30 30 30 30 30 30 31 31 32 32 32 33 33 33 33 33 33 32 30 29 28 27 28 29 29 31 32 33 33 34 35 36 36 35 35 35 34 33 30 28 28
10 11 12 13 14 13 13 13 12 12 12 13 13 15 16 17 19 20 22 23 24 25 26 27 28 29 30 30 30 30 30 30 30 31 31 31 32 32 33 33 33 33 33 33 32 31 30 29 28 27 27 27 28 30 31 32 34 34 34 34 34 33 32 32 32 31 30 29 28
11 12 13 14 13 13 12 12 12 12 12 13 14 15 17 19 20 21 23 24 25 26 27 28 29 30 30 30 30 30 30 31 31 31 32 32 32 33 33 33 33 33 33 33 32 31 29 28 27 27 26 27 28 29 30 32 33 33 33 32 32 31 31 30 30 30 30 30 30
11 13 13 13 13 12 12 11 11 11 12 13 15 16 18 20 21 22 24 25 26 27 28 29 30 30 30 30 30 31 31 31 31 32 32 33 33 33 33 33 33 33 33 32 31 30 29 28 27 27 27 27 28 29 30 31 31 31 31 31 30 30 30 29 29 29 30 30 31
12 13 12 12 12 11 11 10 11 11 13 14 16 18 19 21 22 23 24 25 27 27 28 29 30 30 30 30 31 31 31 32 32 32 33 33 33 33 34 34 33 33 33 32 31 29 28 27 27 27 27 27 28 28 29 29 29 30 29 30 30 29 29 28 29 29 30 30 30
12 12 11 11 11 10 10 10 11 12 13 15 17 19 20 21 23 24 25 26 27 28 29 29 30 30 30 30 31 31 32 32 33 33 33 33 34 34 34 34 33 33 33 32 30 29 28 27 27 27 28 28 28 28 28 28 28 28 28 29 28 28 28 28 28 29 29 29 30
11 10 10 9 9 9 9 10 11 12 14 16 18 19 21 22 23 24 25 26 28 28 29 30 30 30 31 31 31 32 32 33 33 33 33 33 34 34 34 34 33 33 32 31 30 29 28 28 28 28 28 28 27 27 27 27 27 27 27 27 28 28 28 29 28 29 29 29 29
10 9 8 8 8 8 9 10 11 13 15 17 19 20 21 23 24 25 26 27 28 29 29 30 30 30 31 31 32 32 33 33 33 34 34 34 34 34 34 34 33 33 32 31 30 29 29 28 28 28 28 27 27 27 26 26 26 26 27 27 28 28 28 28 28 29 29 29 29
8 8 7 7 7 8 9 11 12 14 16 18 19 20 22 23 24 25 26 27 28 29 29 30 30 31 31 31 32 32 33 34 34 34 34 34 34 34 34 34 33 33 32 31 30 30 29 29 29 28 27 27 27 26 26 26 26 26 27 28 29 29 29 28 28 29 29 28 28
7 7 7 7 7 9 10 12 13 15 17 18 20 21 22 23 24 26 27 28 29 29 30 30 31 31 31 32 32 32 33 34 34 34 34 34 34 34 34 33 33 33 32 31 31 30 30 29 28 27 27 26 26 26 26 27 27 27 28 29 29 29 29 28 29 28 28 28 28
6 6 6 7 8 9 11 13 14 16 17 19 20 21 22 24 25 26 27 28 29 30 30 31 31 31 32 32 32 33 33 34 34 34 34 34 34 34 34 33 33 33 32 31 31 30 29 29 27 27 26 26 26 26 26 27 28 28 28 28 29 29 29 29 29 28 28 27 28
5 5 6 7 9 10 12 14 15 17 18 19 20 22 23 24 26 27 28 29 30 31 31 31 31 31 32 32 32 33 33 33 34 34 34 33 33 33 33 33 33 33 32 32 31 30 29 27 26 26 25 25 25 26 27 28 28 28 28 28 28 29 29 29 28 28 28 28 29
5 5 6 8 9 11 13 14 16 17 18 19 21 22 23 25 26 28 28 29 30 31 31 31 31 32 32 32 33 33 34 33 33 33 33 33 32 32 33 33 33 33 32 31 31 29 28 26 25 25 24 24 25 26 26 27 28 28 28 28 28 28 28 28 28 28 28 29 31
5 6 7 8 10 12 14 15 16 17 19 20 21 23 24 26 27 28 29 29 30 30 31 31 31 32 32 33 33 34 34 34 33 33 33 32 32 31 31 32 33 32 32 31 30 28 27 25 24 24 24 24 24 26 26 27 27 28 28 28 28 28 28 27 28 28 30 32 34
5 6 8 9 11 13 14 16 17 18 19 20 22 24 25 26 28 29 29 30 30 30 31 31 32 32 33 33 33 34 34 34 33 33 32 32 31 31 31 31 32 32 31 29 28 27 26 24 23 23 23 23 24 25 26 27 28 28 28 28 28 28 29 28 29 30 33 36 36
6 7 8 10 12 14 15 16 17 18 19 21 22 24 26 27 28 29 29 30 30 30 31 31 32 32 33 33 33 34 34 34 34 33 32 31 31 31 30 31 31 31 30 28 27 26 25 24 23 23 22 23 23 24 26 27 28 29 29 29 29 29 29 30 31 33 36 38 36
Wind_Direction
157 153 146 133 115 90 63 44 29 21 15 11 6 2 359 356 353 352 352 351 349 347 345 343 341 340 338 335 332 329 325 322 319 316 313 312 312 312 313 314 315 316 317 318 319 320 321 321 322 322 323 324 326 327 328 329 330 329 327 324 320 318 317 316 316 317 318 318 317
168 162 154 140 122 96 57 34 21 14 9 4 1 358 355 353 351 350 349 348 347 346 344 342 341 338 335 332 329 326 323 319 317 314 313 312 312 312 313 314 316 317 318 319 320 320 321 322 322 323 324 325 326 327 328 329 329 328 325 322 319 317 317 316 317 318 318 318 317
178 172 164 154 132 55 15 6 2 1 0 357 355 352 350 349 348 347 346 345 345 344 343 341 338 336 333 330 327 324 321 318 316 314 313 312 313 313 314 316 316 317 318 319 320 321 321 322 323 324 325 326 327 328 328 328 328 326 323 320 318 317 317 317 318 319 318 317 316
184 180 178 178 343 347 349 349 350 351 352 350 349 348 346 345 344 343 343 343 343 342 341 338 336 333 330 327 325 322 319 317 316 315 314 314 314 315 316 317 318 318 319 320 320 321 322 322 324 325 326 327 327 328 328 328 327 325 322 319 318 318 317 318 319 319 318 317 316
183 186 198 274 324 337 341 345 347 348 346 346 346 345 343 342 341 341 341 341 340 339 337 335 333 330 328 326 323 321 319 317 316 315 315 316 316 317 317 318 319 319 320 320 321 322 323 323 324 325 326 326 327 327 327 327 325 323 321 319 319 319 319 319 319 319 318 316 316
187 192 217 276 315 330 337 340 344 344 343 343 343 343 341 340 340 339 338 337 336 335 334 332 330 328 326 325 323 321 320 318 317 317 317 317 318 318 319 319 320 320 321 321 322 323 324 324 325 325 325 326 326 326 326 325 324 323 321 320 320 320 320 319 319 319 318 317 316
200 206 227 272 305 322 329 335 338 340 341 340 341 340 340 339 338 336 335 333 332 331 330 329 328 327 326 325 324 322 321 320 319 319 319 319 319 320 320 321 321 322 322 323 324 324 325 325 325 325 325 325 326 326 325 325 324 323 321 321 320 320 320 320 319 319 318 317 315
216 226 246 276 299 313 323 330 334 337 338 338 338 338 337 336 335 333 331 330 328 327 327 327 327 327 327 325 324 323 322 321 321 321 321 321 321 321 322 322 322 323 324 324 325 325 325 325 325 325 325 325 325 325 325 325 324 323 321 320 320 320 320 320 319 319 317 316 315
221 236 258 281 296 309 319 326 330 334 336 336 336 335 334 333 332 330 328 327 325 325 325 326 327 327 327 326 325 324 323 323 323 323 323 323 323 323 324 324 324 325 325 325 326 326 325 325 324 324 324 325 325 325 325 325 324 322 321 320 320 320 320 319 319 318 317 315 313
229 244 264 283 295 307 317 324 327 331 333 334 333 332 331 330 329 328 326 325 325 324 325 326 326 327 327 326 326 325 325 325 324 325 325 325 325 325 325 325 325 326 326 326 325 325 325 324 324 324 324 325 325 325 325 324 323 322 320 319 319 319 319 319 319 318 316 314 312
240 254 270 284 296 306 315 322 325 328 330 332 331 329 328 327 326 326 325 325 324 323 324 325 326 326 326 327 327 327 326 326 326 326 326 326 326 326 326 326 326 326 326 325 325 324 324 324 324 324 324 325 325 325 325 324 323 321 319 319 318 318 317 318 318 317 315 313 311
247 261 275 288 298 307 315 320 322 325 327 329 328 327 325 324 324 324 324 323 322 322 323 324 326 327 327 328 328 328 328 328 328 327 327 327 326 326 326 325 325 325 325 325 324 324 324 324 324 324 325 325 325 325 325 324 322 320 319 318 317 316 316 316 316 315 314 312 309
250 264 277 289 299 308 314 319 321 323 325 327 326 325 323 322 322 322 322 322 321 322 324 325 327 328 329 329 329 329 329 329 328 328 327 327 326 326 325 325 325 324 324 324 324 324 324 325 325 325 325 325 325 325 324 323 321 319 317 316 315 314 314 314 314 314 313 311 309
254 265 278 289 299 308 313 317 320 322 324 325 324 323 322 321 321 321 321 321 322 323 325 326 328 330 330 330 330 330 329 329 328 327 327 326 325 325 325 325 324 324 324 324 324 325 325 326 326 326 326 325 325 325 324 322 319 317 315 313 313 313 313 313 314 313 312 310 308
257 268 279 291 300 307 313 317 319 322 323 323 322 322 321 321 321 321 321 322 323 325 326 328 330 331 331 331 330 330 329 328 328 327 326 325 325 325 325 325 325 325 325 325 325 326 326 327 328 327 327 325 325 324 322 320 317 314 312 311 311 312 312 313 313 313 311 309 308
261 272 284 294 302 308 313 317 319 321 322 321 321 320 320 320 320 321 322 323 324 327 329 331 332 332 332 331 330 330 329 328 327 327 326 326 326 326 326 326 326 326 326 327 327 328 328 328 329 328 327 325 324 322 320 317 315 312 311 311 311 312 312 313 313 312 310 308 307
264 276 287 296 303 309 313 317 319 320 320 319 319 320 320 320 321 322 323 325 327 329 332 333 333 333 332 331 330 330 329 328 327 327 327 327 327 327 327 327 328 328 328 329 329 330 330 330 329 328 327 325 323 320 318 315 313 311 311 311 312 312 313 313 312 311 309 308 306
267 279 289 298 305 310 314 317 318 318 318 318 318 319 320 321 323 324 326 328 330 332 334 334 333 333 332 331 330 330 329 328 328 328 328 328 328 328 329 329 330 330 330 331 331 331 331 330 329 328 326 324 321 318 316 314 312 312 312 312 312 312 312 312 311 309 308 307 306
270 281 291 299 306 311 314 316 316 317 316 316 317 319 321 323 325 327 329 331 333 335 335 334 333 333 332 331 330 330 329 329 329 329 329 329 330 330 331 331 332 332 332 332 332 332 331 330 329 327 325 323 320 317 315 314 313 312 312 312 312 312 311 310 310 309 308 307 307
273 283 291 300 307 311 314 315 315 315 315 316 318 320 323 326 328 330 332 334 335 335 335 334 333 333 332 331 330 330 330 330 330 330 330 331 332 333 333 334 334 333 333 333 332 332 331 329 328 326 324 322 319 317 316 314 313 312 312 311 310 310 310 309 309 309 309 308 308
276 284 293 301 307 311 313 313 313 314 314 316 319 323 326 328 330 333 334 336 336 336 335 334 333 333 332 331 331 330 330 331 331 332 332 333 334 335 335 335 335 334 334 333 332 331 330 329 327 326 324 321 318 316 315 313 312 311 310 309 309 309 309 309 309 310 310 310 310
277 286 294 302 307 310 311 312 312 313 315 318 321 325 328 330 333 334 336 336 336 335 335 334 333 333 332 332 331 331 332 332 333 333 334 335 336 336 336 336 335 334 333 333 332 331 330 328 327 325 322 320 317 315 313 311 310 309 309 308 308 308 309 309 310 310 311 311 311
279 287 295 302 306 309 310 311 312 313 316 320 324 328 330 332 334 336 336 336 336 335 335 334 333 333 333 332 332 333 333 334 334 335 336 336 337 337 336 336 335 334 333 332 331 330 329 327 325 323 320 317 314 312 311 309 308 308 308 308 308 309 309 310 310 311 312 312 312
280 289 296 302 305 307 309 310 312 315 319 323 327 330 332 334 335 336 337 337 336 335 334 334 333 333 333 333 334 334 335 336 336 337 337 337 337 337 337 336 335 333 332 331 330 329 327 325 322 319 316 314 312 310 309 308 307 307 307 308 308 309 310 311 311 312 313 313 313
283 291 298 302 305 306 308 310 314 318 322 326 329 332 334 335 336 337 337 336 336 335 334 334 334 334 334 334 335 336 337 337 338 338 338 338 338 337 337 335 334 332 331 330 329 328 325 322 319 316 314 312 310 309 308 308 307 307 307 308 309 310 311 312 312 314 314 314 313
285 293 299 302 304 306 309 313 317 322 325 329 332 334 336 337 338 338 337 336 336 335 334 334 334 334 335 335 336 337 338 339 339 339 339 338 338 337 336 335 333 331 330 329 328 326 324 321 318 315 313 312 311 310 309 308 307 307 307 308 309 310 311 313 314 315 315 314 313
288 295 299 302 304 308 311 316 321 325 328 331 334 336 337 338 338 338 337 336 335 335 335 335 335 335 335 336 337 338 339 340 340 340 340 338 337 336 335 334 332 330 329 328 327 325 323 321 318 315 314 313 312 310 309 308 308 308 308 309 310 311 312 313 315 315 315 314 314
291 296 300 303 307 310 315 319 324 328 331 333 335 337 338 339 339 338 337 336 335 335 335 335 335 336 337 338 339 340 341 341 341 340 339 338 336 335 334 332 331 329 328 327 326 325 323 321 318 316 314 314 312 310 309 308 308 309 310 310 311 312 313 314 315 315 315 314 314
293 297 301 306 310 314 318 322 326 330 332 335 337 338 339 339 338 337 336 336 335 335 335 336 336 337 338 339 340 341 342 342 341 340 339 337 335 334 333 332 330 329 328 328 327 325 323 320 318 316 315 314 312 310 309 309 309 310 310 311 312 313 314 314 314 314 314 313 313
294 299 303 309 313 316 320 323 327 331 334 337 338 339 339 338 337 337 336 336 336 336 336 336 337 338 339 340 341 341 341 341 341 340 338 336 334 333 332 332 330 329 329 328 327 325 322 319 317 315 315 314 313 311 310 310 310 310 310 311 312 313 313 313 313 313 313 312 311
296 300 306 311 314 317 320 325 330 333 336 338 339 339 338 338 337 336 336 336 336 336 336 337 338 339 340 341 342 341 341 341 340 339 337 335 334 333 332 332 331 330 329 329 327 325 322 319 317 315 315 314 313 312 311 311 310 310 310 311 312 312 312 313 312 311 311 310 310
296 302 307 311 314 317 322 328 333 336 338 339 339 338 337 337 337 337 337 336 336 336 337 338 339 341 341 342 342 341 341 340 339 338 337 336 334 333 332 332 331 330 329 328 326 324 321 318 316 316 315 315 314 313 311 310 310 309 309 310 311 311 312 312 310 310 310 310 310
297 302 307 311 314 320 326 332 335 338 338 338 338 337 337 336 336 336 337 337 337 338 339 340 341 342 342 342 341 340 340 339 339 338 337 336 334 333 332 331 331 330 329 328 325 323 320 318 317 316 316 315 314 312 311 310 309 309 309 310 310 311 310 310 309 309 309 310 311
298 303 307 311 318 324 331 335 337 338 338 337 337 337 336 336 337 337 337 337 338 339 340 342 342 342 342 342 341 339 339 339 339 338 337 336 335 333 332 331 330 330 329 326 324 322 320 319 318 317 316 315 313 312 311 310 309 309 309 310 310 310 310 309 309 310 311 312 314
299 304 309 316 323 330 334 336 337 337 337 336 336 336 336 337 337 338 338 339 340 341 342 343 343 343 342 342 341 340 339 338 338 338 337 336 335 333 331 330 330 329 328 326 324 322 320 319 318 317 316 314 313 312 311 311 310 309 309 310 310 311 311 310 311 312 313 314 314
300 306 313 321 329 333 335 336 336 336 336 335 336 336 337 337 338 339 340 341 341 342 343 343 343 342 341 340 340 340 339 338 338 337 337 336 335 332 330 329 329 329 327 325 323 321 320 319 318 316 315 314 313 312 311 311 310 310 310 310 311 311 312 312 313 313 313 314 314
300 308 319 326 331 333 334 335 335 334 335 335 336 337 337 338 340 341 342 342 343 343 343 342 342 341 340 340 339 339 339 339 338 337 337 336 334 332 330 329 328 327 326 325 323 321 320 318 317 316 315 314 313 312 312 311 311 311 311 311 312 312 313 314 314 313 313 313 313
301 312 322 328 331 332 333 333 333 333 334 335 336 337 339 340 341 343 344 344 344 343 342 341 341 340 340 340 339 339 339 340 339 338 336 335 334 332 329 327 326 325 325 324 322 320 319 317 316 315 315 314 313 312 312 311 311 311 312 312 312 313 313 314 313 313 313 313 314
304 315 324 328 330 331 332 332 332 333 334 336 337 339 340 342 343 344 345 345 344 342 341 340 340 340 340 340 339 339 339 340 340 339 337 335 334 331 328 325 324 324 324 323 322 320 318 316 315 315 315 314 313 312 312 312 311 312 312 313 313 313 314 313 314 313 313 315 315
307 318 324 328 329 330 330 330 331 333 335 336 338 340 342 343 344 345 345 344 343 342 340 340 340 340 340 340 339 338 338 339 340 340 338 335 333 330 327 325 323 323 323 323 323 321 318 316 315 315 315 314 313 313 312 312 312 312 312 313 313 314 314 314 315 315 316 317 315
310 320 325 328 328 328 329 329 331 333 335 337 340 342 343 344 345 345 344 343 342 341 341 340 340 340 340 340 339 339 339 339 339 339 338 335 332 330 327 325 324 323 323 324 323 321 318 316 315 315 315 314 314 314 313 313 313 313 313 313 313 314 314 315 315 317 318 317 314
Height
1487 1487 1487 1487 1487 1487 1487 1487 1487 1487 1487 1487 1487 1487 1487 1486 1486 1486 1486 1485 1485 1484 1483 1483 1482 1482 1481 1480 1479 1479 1478 1477 1477 1476 1475 1474 1474 1473 1472 1472 1471 1470 1469 1469 1468 1467 1467 1466 1465 1464 1463 1462 1461 1460 1459 1459 1457 1456 1455 1454 1453 1452 1451 1450 1449 1447 1447 1445 1444
1487 1487 1487 1487 1487 1487 1487 1487 1487 1487 1487 1487 1487 1486 1486 1486 1486 1485 1485 1485 1484 1483 1483 1482 1482 1481 1480 1479 1479 1478 1477 1476 1476 1475 1474 1473 1473 1472 1471 1471 1470 1469 1468 1468 1467 1466 1465 1464 1464 1463 1462 1461 1460 1459 1458 1457 1456 1455 1454 1453 1452 1451 1450 1448 1447 1446 1445 1443 1442
1487 1487 1486 1486 1486 1486 1486 1486 1486 1486 1486 1486 1486 1486 1486 1486 1485 1485 1484 1484 1483 1483 1482 1482 1481 1480 1479 1479 1478 1477 1476 1475 1475 1474 1473 1472 1472 1471 1471 1470 1469 1468 1467 1467 1466 1465 1464 1463 1462 1462 1461 1459 1458 1457 1457 1456 1455 1454 1452 1451 1450 1449 1448 1447 1445 1444 1443 1442 1440
1486 1486 1486 1486 1486 1486 1486 1486 1486 1486 1486 1486 1486 1486 1485 1485 1485 1484 1484 1483 1482 1482 1482 1481 1480 1479 1478 1478 1477 1476 1475 1474 1474 1473 1472 1472 1471 1470 1470 1469 1468 1467 1467 1466 1465 1464 1463 1462 1461 1460 1459 1458 1457 1456 1455 1454 1453 1452 1451 1450 1449 1447 1446 1445 1443 1442 1441 1440 1438
1486 1486 1486 1486 1486 1486 1486 1486 1486 1486 1486 1485 1485 1485 1485 1484 1484 1483 1483 1482 1482 1481 1481 1480 1479 1478 1477 1477 1476 1475 1474 1474 1473 1472 1472 1471 1470 1469 1469 1468 1467 1467 1466 1465 1464 1463 1462 1461 1460 1459 1458 1457 1456 1455 1454 1452 1452 1450 1449 1448 1447 1446 1444 1443 1442 1440 1439 1438 1437
1485 1485 1485 1485 1485 1485 1485 1485 1485 1485 1485 1485 1485 1485 1484 1484 1483 1483 1482 1482 1481 1480 1480 1479 1478 1477 1477 1476 1475 1474 1473 1473 1472 1471 1471 1470 1469 1468 1468 1467 1466 1466 1465 1464 1463 1462 1461 1460 1458 1457 1457 1455 1454 1453 1452 1451 1450 1448 1447 1446 1445 1444 1442 1441 1440 1438 1437 1436 1435
1485 1485 1485 1485 1485 1485 1485 1485 1485 1485 1484 1484 1484 1484 1483 1483 1482 1482 1481 1481 1480 1479 1479 1478 1477 1476 1475 1475 1474 1473 1472 1472 1471 1470 1470 1469 1468 1467 1467 1466 1465 1464 1463 1462 1462 1460 1459 1458 1457 1456 1455 1454 1452 1451 1450 1449 1448 1447 1445 1444 1443 1442 1441 1439 1438 1437 1435 1434 1432
1484 1484 1484 1484 1484 1484 1484 1484 1484 1484 1484 1484 1483 1483 1483 1482 1482 1481 1481 1480 1479 1478 1478 1477 1476 1475 1474 1473 1473 1472 1471 1471 1470 1469 1469 1468 1467 1466 1466 1465 1464 1463 1462 1461 1460 1459 1458 1457 1456 1454 1453 1452 1451 1449 1448 1447 1446 1445 1443 1442 1441 1440 1439 1438 1436 1435 1434 1432 1431
1484 1484 1484 1484 1484 1484 1484 1484 1483 1483 1483 1483 1483 1482 1482 1482 1481 1481 1480 1479 1478 1477 1477 1476 1475 1474 1473 1472 1472 1471 1470 1470 1469 1468 1467 1467 1466 1465 1464 1464 1463 1462 1461 1460 1459 1458 1457 1455 1454 1453 1452 1451 1449 1448 1447 1446 1444 1443 1442 1440 1439 1438 1437 1436 1435 1433 1432 1430 1429
1483 1483 1483 1483 1483 1483 1483 1483 1483 1483 1482 1482 1482 1482 1481 1481 1480 1480 1479 1478 1477 1477 1476 1475 1474 1473 1472 1472 1471 1470 1469 1469 1468 1467 1467 1466 1465 1464 1463 1462 1462 1461 1460 1459 1457 1457 1455 1454 1452 1451 1450 1449 1447 1446 1445 1444 1442 1441 1440 1438 1437 1436 1434 1433 1433 1431 1430 1428 1427
1482 1482 1482 1482 1482 1482 1482 1482 1482 1482 1482 1482 1481 1481 1480 1480 1479 1479 1478 1477 1477 1476 1475 1474 1473 1472 1472 1471 1470 1469 1468 1467 1467 1466 1465 1465 1464 1463 1462 1461 1460 1459 1458 1457 1456 1455 1454 1452 1451 1449 1448 1447 1446 1444 1443 1442 1441 1439 1438 1437 1436 1434 1432 1431 1430 1429 1428 1427 1425
1482 1482 1482 1482 1482 1482 1482 1482 1481 1481 1481 1481 1481 1480 1480 1479 1478 1478 1477 1477 1476 1475 1474 1473 1472 1471 1470 1470 1469 1468 1467 1467 1466 1465 1464 1463 1463 1462 1461 1460 1459 1458 1457 1456 1455 1453 1452 1451 1449 1447 1446 1445 1444 1443 1442 1440 1439 1437 1436 1435 1434 1432 1431 1429 1428 1427 1426 1425 1423
1481 1481 1481 1481 1481 1481 1481 1481 1481 1480 1480 1480 1480 1479 1479 1478 1477 1477 1476 1476 1475 1474 1473 1472 1471 1470 1469 1469 1468 1467 1467 1466 1465 1464 1463 1462 1462 1461 1460 1459 1458 1457 1456 1454 1453 1452 1450 1449 1447 1446 1445 1443 1442 1441 1440 1439 1437 1436 1434 1433 1432 1430 1429 1427 1426 1425 1424 1422 1421
1480 1480 1480 1480 1480 1480 1480 1480 1480 1480 1479 1479 1479 1478 1478 1477 1477 1476 1475 1475 1474 1473 1472 1471 1470 1469 1469 1468 1467 1466 1466 1465 1464 1463 1462 1462 1461 1460 1458 1457 1456 1455 1454 1453 1452 1450 1449 1447 1446 1444 1443 1442 1440 1439 1438 1437 1436 1434 1433 1432 1430 1428 1427 1426 1424 1423 1422 1420 1419
1479 1479 1479 1479 1479 1479 1479 1479 1479 1479 1478 1478 1478 1477 1477 1476 1476 1475 1474 1473 1473 1472 1471 1470 1469 1468 1468 1467 1466 1465 1465 1464 1463 1462 1461 1460 1459 1458 1457 1456 1455 1453 1452 1451 1450 1448 1447 1446 1444 1443 1442 1440 1439 1437 1437 1435 1434 1433 1432 1430 1428 1427 1425 1424 1422 1421 1420 1418 1417
1479 1479 1479 1479 1479 1478 1478 1478 1478 1478 1477 1477 1477 1477 1476 1475 1475 1474 1473 1472 1472 1471 1470 1469 1468 1467 1467 1466 1465 1464 1463 1463 1462 1461 1460 1459 1457 1457 1455 1454 1453 1452 1450 1449 1448 1447 1445 1444 1443 1442 1440 1438 1437 1436 1435 1434 1432 1431 1430 1428 1427 1425 1423 1422 1421 1419 1418 1417 1415
1478 1478 1478 1478 1478 1478 1477 1477 1477 1477 1477 1477 1476 1476 1475 1474 1474 1473 1472 1472 1471 1470 1469 1468 1467 1467 1466 1465 1464 1463 1462 1462 1461 1459 1458 1457 1456 1455 1454 1452 1451 1450 1449 1447 1446 1445 1443 1442 1441 1440 1439 1437 1436 1434 1433 1432 1431 1429 1428 1426 1425 1423 1422 1420 1419 1417 1416 1415 1413
1477 1477 1477 1477 1477 1477 1477 1477 1476 1476 1476 1476 1475 1475 1474 1473 1473 1472 1471 1470 1470 1469 1468 1467 1466 1466 1465 1464 1463 1462 1461 1460 1459 1458 1457 1456 1455 1453 1452 1451 1450 1448 1447 1446 1445 1443 1442 1441 1439 1438 1437 1436 1434 1433 1432 1430 1429 1427 1426 1424 1422 1421 1419 1418 1417 1416 1414 1413 1411
1477 1477 1477 1476 1476 1476 1476 1476 1475 1475 1475 1475 1474 1474 1473 1472 1472 1471 1470 1469 1468 1468 1467 1466 1465 1465 1464 1463 1462 1461 1460 1459 1458 1457 1456 1454 1453 1452 1451 1449 1448 1447 1446 1444 1443 1442 1440 1439 1438 1437 1435 1434 1432 1431 1429 1428 1427 1425 1423 1422 1420 1419 1417 1416 1415 1414 1412 1411 1409
1476 1476 1476 1475 1475 1475 1475 1475 1475 1474 1474 1474 1473 1472 1472 1471 1471 1470 1469 1468 1467 1467 1466 1465 1464 1464 1463 1462 1461 1460 1459 1458 1457 1455 1454 1453 1452 1450 1449 1448 1447 1445 1444 1443 1442 1440 1439 1437 1436 1435 1433 1432 1430 1429 1427 1426 1424 1422 1421 1420 1418 1417 1415 1414 1413 1411 1410 1409 1407
1475 1475 1475 1475 1474 1474 1474 1474 1474 1474 1473 1473 1472 1472 1471 1470 1470 1469 1468 1467 1467 1466 1465 1464 1463 1462 1462 1461 1460 1459 1458 1457 1455 1454 1453 1452 1450 1449 1448 1447 1445 1444 1443 1442 1440 1439 1437 1436 1434 1433 1431 1430 1428 1427 1425 1424 1422 1420 1419 1417 1416 1415 1413 1412 1411 1409 1408 1407 1405
1474 1474 1474 1474 1474 1473 1473 1473 1473 1473 1472 1472 1471 1471 1470 1469 1469 1468 1467 1467 1466 1465 1464 1463 1462 1462 1461 1460 1458 1457 1456 1455 1454 1453 1452 1450 1449 1448 1447 1445 1444 1442 1441 1440 1438 1437 1435 1434 1432 1431 1430 1428 1427 1425 1424 1422 1420 1419 1417 1415 1414 1412 1411 1410 1408 1407 1406 1404 1403
1473 1473 1473 1473 1473 1473 1472 1472 1472 1472 1471 1471 1470 1470 1469 1469 1468 1467 1467 1466 1465 1464 1463 1462 1462 1461 1460 1458 1457 1456 1455 1453 1452 1451 1450 1449 1447 1446 1445 1444 1442 1441 1440 1438 1437 1435 1434 1432 1431 1429 1428 1427 1425 1424 1422 1421 1419 1417 1415 1413 1412 1410 1409 1407 1406 1405 1403 1402 1401
1472 1472 1472 1472 1472 1472 1472 1472 1471 1471 1470 1470 1469 1469 1468 1468 1467 1466 1466 1465 1464 1463 1462 1462 1461 1460 1458 1457 1456 1455 1453 1452 1451 1449 1448 1447 1446 1445 1443 1442 1441 1440 1438 1437 1435 1434 1432 1431 1429 1428 1427 1425 1424 1422 1421 1419 1417 1415 1413 1412 1410 1408 1406 1405 1404 1403 1402 1400 1399
1472 1472 1471 1471 1471 1471 1471 1471 1470 1470 1469 1469 1468 1468 1467 1467 1466 1465 1465 1464 1463 1462 1462 1460 1459 1458 1457 1456 1455 1453 1452 1451 1449 1448 1447 1445 1444 1443 1442 1441 1439 1438 1437 1435 1434 1433 1432 1430 1429 1427 1426 1424 1422 1421 1419 1417 1416 1414 1412 1410 1408 1406 1404 1402 1402 1401 1400 1399 1397
1471 1471 1471 1470 1470 1470 1470 1470 1469 1469 1468 1468 1468 1467 1467 1466 1465 1464 1464 1463 1462 1461 1460 1459 1458 1457 1456 1455 1453 1452 1451 1449 1448 1447 1445 1444 1442 1442 1440 1439 1438 1436 1435 1434 1432 1431 1430 1429 1428 1427 1425 1423 1421 1419 1417 1415 1414 1412 1410 1408 1407 1405 1403 1401 1399 1398 1397 1397 1396
1470 1470 1470 1469 1469 1469 1469 1469 1468 1468 1468 1467 1467 1466 1466 1465 1464 1463 1463 1462 1461 1460 1459 1458 1457 1456 1455 1453 1452 1451 1449 1448 1447 1445 1444 1442 1441 1440 1439 1437 1436 1435 1433 1432 1431 1430 1428 1427 1426 1425 1423 1422 1420 1418 1416 1413 1412 1410 1408 1407 1405 1403 1402 1400 1398 1397 1396 1395 1394
1469 1469 1469 1469 1468 1468 1468 1468 1468 1467 1467 1467 1466 1465 1465 1464 1463 1462 1462 1461 1460 1459 1458 1457 1456 1454 1453 1452 1450 1449 1448 1447 1445 1444 1442 1441 1440 1439 1437 1436 1434 1433 1432 1431 1429 1428 1427 1425 1424 1423 1422 1421 1418 1416 1414 1412 1410 1408 1407 1405 1403 1402 1401 1399 1397 1396 1395 1394 1392
1468 1468 1468 1468 1468 1467 1467 1467 1467 1467 1466 1466 1465 1464 1464 1463 1462 1462 1461 1460 1459 1458 1457 1455 1454 1453 1452 1450 1449 1447 1446 1445 1444 1442 1441 1440 1438 1437 1436 1434 1433 1431 1430 1429 1427 1426 1425 1424 1423 1422 1420 1419 1417 1415 1412 1411 1409 1407 1405 1403 1402 1401 1399 1398 1397 1395 1394 1393 1391
1467 1467 1467 1467 1467 1467 1467 1467 1466 1466 1465 1465 1464 1463 1463 1462 1462 1461 1460 1459 1458 1457 1455 1454 1453 1452 1450 1449 1447 1446 1445 1443 1442 1441 1440 1438 1437 1435 1434 1432 1431 1430 1428 1427 1426 1424 1423 1422 1421 1420 1418 1417 1415 1413 1411 1409 1407 1406 1404 1402 1401 1399 1398 1397 1396 1395 1393 1392 1390
1467 1467 1467 1466 1466 1466 1466 1466 1465 1465 1464 1464 1463 1462 1462 1461 1461 1460 1459 1457 1457 1455 1454 1453 1452 1450 1449 1447 1446 1445 1443 1442 1441 1440 1438 1437 1435 1433 1432 1431 1429 1428 1427 1425 1424 1423 1422 1421 1419 1418 1417 1415 1413 1411 1409 1407 1406 1404 1402 1401 1400 1398 1397 1396 1395 1393 1392 1391 1389
1466 1466 1466 1466 1465 1465 1465 1465 1464 1464 1463 1463 1462 1462 1461 1461 1460 1459 1458 1457 1455 1454 1452 1451 1450 1448 1447 1446 1444 1443 1442 1441 1439 1438 1437 1435 1433 1432 1430 1429 1427 1426 1425 1424 1422 1421 1420 1419 1417 1416 1415 1413 1412 1410 1408 1406 1404 1403 1401 1400 1398 1397 1396 1395 1393 1392 1391 1389 1388
1465 1465 1465 1465 1465 1464 1464 1464 1463 1463 1462 1462 1462 1461 1460 1459 1458 1457 1457 1455 1454 1452 1451 1450 1448 1447 1445 1444 1443 1441 1440 1439 1438 1436 1435 1433 1432 1430 1429 1427 1426 1425 1423 1422 1421 1420 1418 1417 1416 1414 1413 1411 1410 1408 1406 1404 1403 1401 1400 1398 1397 1396 1395 1394 1392 1391 1389 1388 1387
1464 1464 1464 1464 1464 1464 1463 1463 1463 1462 1462 1461 1461 1460 1459 1458 1457 1456 1455 1454 1452 1451 1450 1448 1447 1446 1444 1443 1442 1440 1438 1437 1436 1435 1433 1432 1430 1428 1427 1426 1424 1423 1422 1421 1419 1418 1417 1415 1414 1412 1411 1410 1408 1406 1404 1403 1401 1400 1398 1397 1396 1395 1393 1392 1391 1389 1388 1387 1385
1463 1463 1463 1463 1463 1463 1462 1462 1462 1461 1461 1460 1460 1459 1458 1457 1456 1455 1454 1452 1451 1450 1448 1447 1446 1444 1443 1442 1440 1439 1437 1436 1434 1433 1432 1430 1428 1427 1425 1424 1422 1422 1420 1419 1418 1417 1415 1414 1412 1411 1409 1408 1406 1405 1403 1402 1400 1398 1397 1396 1394 1393 1392 1390 1389 1388 1387 1385 1384
1462 1462 1462 1462 1462 1462 1462 1461 1461 1461 1460 1459 1459 1458 1457 1456 1455 1454 1452 1451 1449 1448 1447 1445 1444 1443 1441 1440 1439 1437 1436 1434 1433 1431 1430 1428 1427 1425 1423 1422 1421 1420 1419 1417 1416 1415 1413 1412 1411 1409 1408 1407 1405 1403 1402 1400 1398 1397 1395 1394 1392 1391 1390 1389 1387 1386 1385 1384 1382
1462 1462 1462 1462 1461 1461 1461 1460 1460 1460 1459 1458 1458 1457 1456 1455 1454 1452 1451 1449 1448 1446 1445 1444 1442 1441 1440 1439 1437 1436 1435 1433 1432 1430 1428 1427 1426 1424 1422 1420 1419 1418 1417 1416 1415 1413 1412 1411 1409 1408 1407 1405 1404 1402 1400 1399 1397 1395 1394 1392 1391 1390 1388 1387 1386 1384 1383 1382 1381
1461 1461 1461 1461 1460 1460 1460 1460 1459 1459 1458 1457 1457 1456 1455 1453 1452 1451 1450 1448 1447 1445 1443 1442 1441 1440 1439 1437 1436 1435 1433 1432 1431 1429 1427 1425 1424 1422 1421 1419 1417 1416 1415 1414 1413 1412 1411 1409 1408 1407 1406 1404 1402 1401 1399 1397 1396 1394 1392 1391 1389 1388 1387 1386 1384 1383 1382 1381 1379
1460 1460 1460 1460 1459 1459 1459 1459 1458 1458 1457 1456 1456 1455 1453 1452 1451 1450 1448 1447 1446 1444 1442 1441 1440 1439 1437 1436 1434 1433 1432 1431 1429 1428 1426 1424 1422 1421 1420 1418 1416 1415 1414 1413 1412 1410 1409 1408 1407 1406 1405 1403 1402 1400 1398 1396 1394 1393 1391 1390 1388 1387 1385 1384 1383 1382 1380 1378 1377
1459 1459 1459 1459 1459 1458 1458 1458 1457 1457 1456 1455 1454 1453 1452 1451 1450 1448 1447 1446 1444 1443 1442 1440 1439 1437 1436 1435 1433 1432 1430 1429 1427 1426 1425 1423 1421 1420 1418 1417 1415 1413 1412 1411 1410 1409 1407 1407 1406 1405 1404 1402 1401 1399 1397 1395 1393 1391 1390 1388 1387 1385 1383 1382 1381 1380 1378 1376 1374
1458 1458 1458 1458 1458 1458 1457 1457 1457 1456 1455 1454 1453 1452 1451 1450 1448 1447 1446 1445 1443 1442 1441 1439 1437 1436 1435 1434 1432 1430 1428 1427 1426 1424 1423 1422 1420 1418 1417 1415 1413 1412 1411 1410 1408 1407 1406 1406 1405 1404 1403 1402 1400 1398 1396 1394 1392 1390 1388 1387 1386 1384 1382 1380 1379 1378 1376 1373 1372